[[{"header":{"parameterUnit":"m.s-1","parameterCategory":1,"la1":30.2991,"la2":30.254,"lo1":-89.0895,"lo2":-89.0444,"dy":0.0017,"dx":0.0017,"nx":28,"ny":28,"refTime":"2025-09-17T03:00:00:Z","depth":0,"parameterNumber":2,"parameterNumberName":"U-component_of_WINDS"},"data":[0,0,0,0,0,0,0,0,0,0,0,0,0,0,0,0,0,0,0,0,0,0,0,0,0,0,0,0,0,0,0,0,0,0,0,0,0,0,0,0,0,0,0,0,0,0,0,0,0,0,0,0,0,0,0,0,0,0,1.5165,1.5165,0,1.5167,1.5167,1.5167,1.5125,1.5124,1.5123,1.5122,1.5124,1.5125,1.5126,0,0,0,0,0,0,0,0,0,0,0,0,0,1.5123,1.5124,1.5165,1.5165,1.5165,1.5167,1.5167,1.5167,1.5125,1.5124,1.5123,1.5121,1.5123,1.5125,1.5126,0,0,0,0,0,0,0,0,0,0,0,0,0,1.5135,1.5124,1.5165,1.5144,1.5143,1.5167,1.5167,1.5167,1.5126,1.5124,1.5122,1.5121,1.5123,1.5125,1.5126,1.5171,0,0,1.5131,1.5132,0,0,0,0,0,0,0,0,1.5134,1.5136,1.5147,1.5146,1.5144,1.5144,1.5153,1.5168,1.5126,1.5132,1.5122,1.512,1.5132,1.5133,1.5137,1.5171,1.5171,1.5132,1.5133,1.5133,1.5134,0,0,0,0,0,0,0,1.5133,1.5136,1.5166,1.5148,1.5145,1.5134,1.5134,1.5156,1.5142,1.5131,1.5128,1.5129,1.5131,1.5135,1.5137,1.5171,1.5131,1.5133,1.5134,1.5135,1.5238,1.524,0,0,0,0,0,0,1.5135,1.5135,1.5166,1.5166,1.5135,1.5137,1.5136,1.5146,1.5141,1.5139,1.5131,1.5127,1.5133,1.5135,1.5137,1.5186,1.5133,1.5135,1.5136,1.5236,1.5238,1.524,0,0,0,0,0,0,1.5135,1.5138,1.5166,1.515,1.5152,1.5139,1.515,1.5147,1.5151,1.5141,1.5138,1.5138,1.5132,1.5134,1.5162,1.5185,1.5136,1.5137,1.5234,1.5237,1.5239,1.5286,0,0,0,0,0,0,1.5134,1.5138,1.5156,1.5151,1.5153,1.5192,1.5152,1.5148,1.5154,1.515,1.5147,1.5145,1.5131,1.516,1.5163,1.5187,1.5138,1.5232,1.5236,1.5239,1.5282,1.529,1.5297,0,0,0,0,0,1.5132,1.5169,1.5157,1.5161,1.5175,1.5193,1.5195,1.5178,1.5157,1.5173,1.5166,1.5145,1.5183,1.5163,1.5167,1.5191,1.523,1.5235,1.5238,1.5279,1.5289,1.5296,0,0,0,0,0,0,1.5178,1.5168,1.5154,1.5191,1.5193,1.5186,1.5206,1.5189,1.5197,1.5193,1.5172,1.5171,1.5202,1.5199,1.5177,1.5232,1.5203,1.5208,1.5232,1.5241,1.5248,1.5247,1.514,0,0,0,0,0,1.5192,1.5208,1.5199,1.5232,1.5234,1.522,1.5228,1.5214,1.5216,1.5216,1.5211,1.5213,1.5225,1.5233,1.5244,1.5282,1.528,1.5301,1.5308,1.5314,1.5318,1.5335,1.5344,1.5253,1.5253,1.5253,0,0,1.5222,1.5219,1.523,1.5241,1.5241,1.5257,1.5221,1.524,1.5251,1.5219,1.5244,1.5241,1.5241,1.5274,1.5288,1.5273,1.5342,1.5319,1.5324,1.5324,1.534,1.5349,1.5357,1.5256,1.5255,1.5255,0,0,1.5284,1.5284,1.531,1.5311,1.5311,1.5301,1.5308,1.5303,1.5299,1.5324,1.5299,1.5312,1.5334,1.5335,1.5338,1.5398,1.5378,1.5402,1.5439,1.5456,1.5463,1.5469,1.5489,1.5496,1.5407,1.5407,1.5407,0,1.5321,1.5344,1.5326,1.5346,1.535,1.5322,1.5347,1.5349,1.5353,1.5356,1.534,1.5364,1.5363,1.5394,1.5409,1.5413,1.5418,1.5402,1.5464,1.547,1.5475,1.5493,1.5501,1.541,1.5409,1.5409,1.5409,0,1.5388,1.5404,1.5426,1.5429,1.5436,1.5459,1.5444,1.5453,1.5439,1.5431,1.5456,1.5453,1.5461,1.5468,1.5455,1.5497,1.5487,1.5468,1.5437,1.5487,1.5503,1.551,1.5414,1.5413,1.5412,1.5411,0,0,1.5478,1.5471,1.5478,1.5478,1.5476,1.5488,1.5509,1.5517,1.5524,1.5528,1.5544,1.5562,1.5543,1.5547,1.5534,1.555,1.5594,1.5528,1.5527,1.5538,1.5637,1.565,1.5658,1.5582,1.5583,1.5584,1.5636,0,1.5536,1.5571,1.5555,1.5591,1.5605,1.5577,1.5595,1.5595,1.5588,1.5598,1.559,1.5602,1.5578,1.558,1.5594,1.5586,1.5613,1.5582,1.5594,1.5595,1.5593,1.5667,1.5681,1.573,1.5643,1.5644,1.5645,0,1.5609,1.5614,1.5651,1.5644,1.5649,1.5666,1.567,1.5681,1.568,1.5673,1.5677,1.5659,1.5678,1.5649,1.5674,1.5653,1.5657,1.5654,1.5655,1.5654,1.5621,1.5666,1.5746,1.5753,1.5655,1.5654,1.5653,0,1.5667,1.5684,1.5708,1.5709,1.5703,1.5714,1.5712,1.5709,1.5714,1.5718,1.5721,1.5728,1.5731,1.5736,1.5721,1.5701,1.5746,1.5717,1.574,1.574,1.5749,1.5748,1.5829,1.5756,1.5756,1.5756,1.5755,0,1.5733,1.5756,1.5734,1.5748,1.5773,1.5754,1.5779,1.5774,1.5771,1.5783,1.5761,1.5773,1.5753,1.5762,1.575,1.5771,1.5773,1.5767,1.5763,1.5768,1.5768,1.5769,1.5764,1.5758,1.5757,1.5757,1.5756,0,1.5802,1.5789,1.5812,1.5803,1.5801,1.582,1.5812,1.5824,1.5815,1.5831,1.5833,1.5819,1.5829,1.5814,1.5823,1.5815,1.5843,1.5835,1.5843,1.584,1.5863,1.586,1.5944,1.5953,1.5877,1.5878,1.5879,0,1.5843,1.586,1.5853,1.5859,1.5857,1.5868,1.5873,1.5855,1.586,1.5859,1.5871,1.5879,1.5884,1.5901,1.5891,1.5897,1.5888,1.5917,1.5889,1.5892,1.5885,1.5883,1.5884,1.5922,1.5923,1.5924,1.5925,0,1.5917,1.5909,1.5916,1.5921,1.5927,1.593,1.5931,1.5938,1.5918,1.5925,1.5935,1.5939,1.5947,1.5954,1.5957,1.5954,1.5936,1.5934,1.5939,1.5943,1.5946,1.5942,1.5856,1.5932,1.5931,1.5931,1.593,1.593,1.5972,1.5984,1.598,1.5989,1.5988,1.5989,1.5999,1.5991,1.5999,1.6003,1.5992,1.6004,1.6001,1.6003,1.6002,1.601,1.5997,1.6005,1.6007,1.6009,1.6011,1.5946,1.6011,1.6011,1.601,1.601,1.601,0,1.6042,1.6038,1.6046,1.6047,1.6054,1.6036,1.6036,1.6042,1.6052,1.6051,1.6056,1.6066,1.6073,1.6063,1.6068,1.6076,1.6068,1.6078,1.6076,1.6075,1.6024,1.6017,1.6084,1.6084,1.6084,1.6084,1.6084,1.6084,1.6079,1.6099,1.609,1.6109,1.6104,1.6115,1.6116,1.6117,1.6115,1.6127,1.6132,1.6126,1.612,1.6124,1.6129,1.6126,1.6128,1.6141,1.6134,1.6086,1.6079,1.6072,1.6066,1.6142,1.6142,1.6185,1.6185,1.6185]},{"header":{"parameterUnit":"m.s-1","parameterCategory":1,"la1":30.2991,"la2":30.254,"lo1":-89.0895,"lo2":-89.0444,"dy":0.0017,"dx":0.0017,"nx":28,"ny":28,"refTime":"2025-09-17T03:00:00:Z","depth":0,"parameterNumber":3,"parameterNumberName":"V-component_of_WINDS"},"data":[0,0,0,0,0,0,0,0,0,0,0,0,0,0,0,0,0,0,0,0,0,0,0,0,0,0,0,0,0,0,0,0,0,0,0,0,0,0,0,0,0,0,0,0,0,0,0,0,0,0,0,0,0,0,0,0,0,0,-1.1792,-1.1793,0,-1.1837,-1.1837,-1.1838,-1.1847,-1.1847,-1.1846,-1.1846,-1.1891,-1.1893,-1.1894,0,0,0,0,0,0,0,0,0,0,0,0,0,-1.1715,-1.1717,-1.1792,-1.1793,-1.1793,-1.1837,-1.1837,-1.1838,-1.1847,-1.1847,-1.1846,-1.1846,-1.1891,-1.1893,-1.1895,0,0,0,0,0,0,0,0,0,0,0,0,0,-1.1753,-1.1717,-1.1792,-1.1803,-1.1804,-1.1837,-1.1837,-1.1838,-1.1847,-1.1847,-1.1846,-1.1846,-1.189,-1.1893,-1.1895,-1.1919,0,0,-1.1902,-1.1903,0,0,0,0,0,0,0,0,-1.1751,-1.1756,-1.1801,-1.1802,-1.1804,-1.1836,-1.1827,-1.1865,-1.1847,-1.1831,-1.1846,-1.1845,-1.1873,-1.1877,-1.1886,-1.1921,-1.1923,-1.1902,-1.1903,-1.1904,-1.1905,0,0,0,0,0,0,0,-1.1748,-1.1754,-1.181,-1.1801,-1.1803,-1.1806,-1.1811,-1.1834,-1.1854,-1.1832,-1.1833,-1.1838,-1.1874,-1.1884,-1.1888,-1.1924,-1.1902,-1.1904,-1.1905,-1.1906,-1.1982,-1.1983,0,0,0,0,0,0,-1.1744,-1.1752,-1.1808,-1.1811,-1.1776,-1.1808,-1.1813,-1.1826,-1.1854,-1.1858,-1.1839,-1.1838,-1.1881,-1.1885,-1.1889,-1.192,-1.1904,-1.1907,-1.1908,-1.1982,-1.1982,-1.1983,0,0,0,0,0,0,-1.1742,-1.1749,-1.1807,-1.1782,-1.1789,-1.181,-1.1824,-1.1827,-1.1837,-1.1859,-1.1863,-1.1845,-1.188,-1.1886,-1.1912,-1.1922,-1.1908,-1.191,-1.1981,-1.1982,-1.1983,-1.1982,0,0,0,0,0,0,-1.174,-1.1748,-1.1757,-1.1782,-1.1791,-1.1828,-1.1825,-1.1828,-1.1841,-1.1842,-1.1866,-1.187,-1.188,-1.1908,-1.1914,-1.1925,-1.1911,-1.198,-1.1981,-1.1982,-1.1981,-1.1983,-1.1984,0,0,0,0,0,-1.1737,-1.1755,-1.1758,-1.1764,-1.1803,-1.1829,-1.1834,-1.1846,-1.1842,-1.1852,-1.1866,-1.1869,-1.192,-1.1911,-1.1918,-1.1929,-1.1979,-1.1981,-1.1982,-1.198,-1.1982,-1.1984,0,0,0,0,0,0,-1.173,-1.1758,-1.1762,-1.1788,-1.1806,-1.183,-1.1843,-1.1847,-1.1867,-1.1866,-1.188,-1.1885,-1.1911,-1.1923,-1.1912,-1.1955,-1.195,-1.1952,-1.1946,-1.1948,-1.1949,-1.1946,-1.1913,0,0,0,0,0,-1.1732,-1.1751,-1.1774,-1.1796,-1.1804,-1.1822,-1.1834,-1.1842,-1.1861,-1.1868,-1.1884,-1.1903,-1.1923,-1.1936,-1.1956,-1.1983,-1.1989,-1.1994,-1.1996,-1.1997,-1.1999,-1.2015,-1.2018,-1.1988,-1.1988,-1.1988,0,0,-1.1736,-1.1753,-1.1764,-1.1795,-1.181,-1.1829,-1.1828,-1.1849,-1.1864,-1.1872,-1.1897,-1.191,-1.1931,-1.1958,-1.1971,-1.1969,-1.2009,-1.1999,-1.1999,-1.2001,-1.2017,-1.202,-1.2022,-1.1989,-1.1989,-1.1988,0,0,-1.1752,-1.1767,-1.1787,-1.1802,-1.1825,-1.1836,-1.1841,-1.1865,-1.1874,-1.19,-1.1907,-1.1925,-1.1959,-1.1975,-1.1987,-1.2011,-1.2015,-1.2017,-1.2024,-1.204,-1.2042,-1.2044,-1.2053,-1.2056,-1.2019,-1.2019,-1.2019,0,-1.1753,-1.1783,-1.1796,-1.1817,-1.183,-1.1839,-1.1859,-1.1873,-1.1901,-1.191,-1.1908,-1.1952,-1.1967,-1.1998,-1.2004,-1.2014,-1.202,-1.2014,-1.2041,-1.2043,-1.2045,-1.2054,-1.2057,-1.2019,-1.2019,-1.2019,-1.2019,0,-1.1784,-1.1805,-1.1818,-1.1845,-1.186,-1.188,-1.1897,-1.191,-1.1917,-1.1929,-1.1956,-1.1975,-1.1999,-1.2007,-1.2014,-1.204,-1.2038,-1.2038,-1.2033,-1.2048,-1.2057,-1.206,-1.2019,-1.2019,-1.2019,-1.2019,0,0,-1.1797,-1.1832,-1.1836,-1.1849,-1.1876,-1.1892,-1.1913,-1.1937,-1.1949,-1.1968,-1.1986,-1.2016,-1.2017,-1.2031,-1.2039,-1.2053,-1.2072,-1.2052,-1.2052,-1.2055,-1.2102,-1.2101,-1.2105,-1.2075,-1.2075,-1.2076,-1.21,0,-1.1816,-1.1854,-1.1867,-1.1898,-1.1918,-1.1927,-1.1946,-1.1964,-1.1976,-1.1995,-1.2009,-1.203,-1.2029,-1.2037,-1.2051,-1.2066,-1.2081,-1.2065,-1.2092,-1.2093,-1.2086,-1.2109,-1.2109,-1.2131,-1.2103,-1.2104,-1.2104,0,-1.1844,-1.1864,-1.1898,-1.1923,-1.1931,-1.1948,-1.1971,-1.1989,-1.201,-1.2019,-1.2035,-1.2043,-1.2066,-1.206,-1.2092,-1.2081,-1.2093,-1.2102,-1.2104,-1.2106,-1.2099,-1.2113,-1.2138,-1.2141,-1.211,-1.2109,-1.2109,0,-1.185,-1.1886,-1.1911,-1.1922,-1.1951,-1.1963,-1.1975,-1.1996,-1.201,-1.2031,-1.204,-1.2064,-1.2076,-1.2094,-1.2109,-1.2103,-1.214,-1.2135,-1.2147,-1.2147,-1.2154,-1.2154,-1.2182,-1.2162,-1.2162,-1.2162,-1.2162,0,-1.1871,-1.1891,-1.1914,-1.1929,-1.1953,-1.1968,-1.199,-1.2004,-1.2022,-1.2041,-1.205,-1.2067,-1.2085,-1.2105,-1.2117,-1.2142,-1.2147,-1.2155,-1.2158,-1.2154,-1.2153,-1.2162,-1.2161,-1.2163,-1.2163,-1.2163,-1.2162,0,-1.1881,-1.1898,-1.1926,-1.1952,-1.1959,-1.1975,-1.1997,-1.2013,-1.2026,-1.2049,-1.2055,-1.2076,-1.21,-1.2116,-1.2146,-1.2154,-1.2182,-1.2184,-1.2175,-1.2176,-1.2188,-1.2187,-1.2223,-1.2228,-1.2205,-1.2205,-1.2205,0,-1.1893,-1.1909,-1.1937,-1.1951,-1.1964,-1.1984,-1.1999,-1.2015,-1.2029,-1.2056,-1.2068,-1.2093,-1.2113,-1.2151,-1.2169,-1.2192,-1.2196,-1.2207,-1.2199,-1.2196,-1.2196,-1.2195,-1.2197,-1.2208,-1.2208,-1.2208,-1.2208,0,-1.1913,-1.1921,-1.1941,-1.1965,-1.1982,-1.2002,-1.2021,-1.2031,-1.2051,-1.2067,-1.2092,-1.2107,-1.2139,-1.2163,-1.2189,-1.2203,-1.2209,-1.2211,-1.2215,-1.2211,-1.2205,-1.2209,-1.2178,-1.221,-1.2209,-1.2209,-1.2209,-1.2209,-1.1925,-1.194,-1.1962,-1.1985,-1.2002,-1.202,-1.2036,-1.2052,-1.2072,-1.2099,-1.2108,-1.2133,-1.2156,-1.2191,-1.2205,-1.2226,-1.2225,-1.2231,-1.2232,-1.2233,-1.2234,-1.2202,-1.223,-1.223,-1.223,-1.223,-1.223,0,-1.1946,-1.1961,-1.1982,-1.2009,-1.2027,-1.2032,-1.2054,-1.2069,-1.2092,-1.2112,-1.2132,-1.2161,-1.2185,-1.2205,-1.223,-1.2243,-1.2247,-1.2249,-1.2248,-1.2252,-1.2233,-1.2227,-1.2246,-1.2246,-1.2246,-1.2246,-1.2246,-1.2246,-1.1959,-1.1984,-1.1995,-1.2029,-1.2044,-1.2069,-1.2082,-1.2099,-1.2115,-1.2147,-1.2167,-1.218,-1.2201,-1.2228,-1.225,-1.2256,-1.2265,-1.2267,-1.2273,-1.2255,-1.2253,-1.2251,-1.2246,-1.2268,-1.2269,-1.229,-1.229,-1.229]}]]